This is the latest recevied weather packets stored in our database for station/object KC3DGM. If no packets are shown the sender has not sent any weather packets the latest 10 day(s).
| Time | Temp. | Humidity | Pressure | Rain* | Wind** | Luminosity | Snow |
|---|---|---|---|---|---|---|---|
| 1777601542 | 3.33° C | 90% | 986.2 hPa | 0 mm | - | 0 W/m² | - |
| 1777601237 | 3.33° C | 90% | 986.3 hPa | 0 mm | - | 0 W/m² | - |
| 1777600935 | 3.33° C | 90% | 986 hPa | 0 mm | - | 0 W/m² | - |
| 1777600630 | 3.33° C | 88% | 985.9 hPa | 0 mm | - | 0 W/m² | - |
| 1777600327 | 3.33° C | 87% | 985.9 hPa | 0 mm | - | 0 W/m² | - |
| 1777600023 | 3.33° C | 87% | 986 hPa | 0 mm | - | 0 W/m² | - |
| 1777599719 | 3.89° C | 87% | 986 hPa | 0 mm | - | 0 W/m² | - |
| 1777599414 | 3.89° C | 86% | 986.1 hPa | 0 mm | - | 0 W/m² | - |
| 1777599112 | 3.89° C | 84% | 985.9 hPa | 0 mm | - | 0 W/m² | - |
| 1777598811 | 4.44° C | 84% | 985.9 hPa | 0 mm | - | 0 W/m² | - |
| 1777598510 | 4.44° C | 83% | 985.5 hPa | 0 mm | - | 0 W/m² | - |
| 1777598204 | 5° C | 83% | 985.5 hPa | 0 mm | - | 0 W/m² | - |
| 1777597903 | 5° C | 81% | 985.4 hPa | 0 mm | - | 0 W/m² | - |
| 1777597598 | 5.56° C | 80% | 985.6 hPa | 0 mm | - | 0 W/m² | - |
| 1777597294 | 5.56° C | 80% | 985.7 hPa | 0 mm | - | 0 W/m² | - |
| 1777596989 | 6.11° C | 80% | 985.4 hPa | 0 mm | - | 0 W/m² | - |
| 1777596686 | 6.67° C | 74% | 985.3 hPa | 0 mm | - | 0 W/m² | - |
| 1777596383 | 7.22° C | 72% | 985.4 hPa | 0 mm | - | 0 W/m² | - |
| 1777596080 | 7.22° C | 70% | 985.4 hPa | 0 mm | - | 0 W/m² | - |
| 1777595775 | 7.78° C | 69% | 985.5 hPa | 0 mm | - | 0 W/m² | - |
| 1777595471 | 7.78° C | 68% | 985.4 hPa | 0 mm | - | 0 W/m² | - |
| 1777595168 | 8.33° C | 68% | 985.5 hPa | 0 mm | - | 0 W/m² | - |
| 1777594864 | 8.33° C | 68% | 985.2 hPa | 0 mm | - | 0 W/m² | - |
| 1777594560 | 8.33° C | 67% | 985.4 hPa | 0 mm | - | 1 W/m² | - |
| 1777594257 | 8.89° C | 67% | 985.3 hPa | 0 mm | - | 2 W/m² | - |
* Rain latest hour (hover to see other rain measurements)
** Current wind speed in m/s (hover to see current wind gust speed)